[[{"header":{"parameterUnit":"m.s-1","parameterCategory":1,"la1":30.2991,"la2":30.254,"lo1":-89.0895,"lo2":-89.0444,"dy":0.0017,"dx":0.0017,"nx":28,"ny":28,"refTime":"2024-04-05T03:00:00:Z","depth":0,"parameterNumber":2,"parameterNumberName":"U-component_of_WINDS"},"data":[0,0,0,0,0,0,0,0,0,0,0,0,0,0,0,0,0,0,0,0,0,0,0,0,0,0,0,0,0,0,0,0,0,0,0,0,0,0,0,0,0,0,0,0,0,0,0,0,0,0,0,0,0,0,0,0,0,0,-4.4571,-4.4572,0,-4.4629,-4.463,-4.4631,-4.4495,-4.4491,-4.4486,-4.4482,-4.4541,-4.4547,-4.4552,0,0,0,0,0,0,0,0,0,0,0,0,0,-4.434,-4.4345,-4.4571,-4.4572,-4.4572,-4.4629,-4.463,-4.4631,-4.4496,-4.449,-4.4485,-4.448,-4.4539,-4.4546,-4.4553,0,0,0,0,0,0,0,0,0,0,0,0,0,-4.4423,-4.4346,-4.4571,-4.4512,-4.4507,-4.4629,-4.463,-4.4631,-4.4497,-4.449,-4.4484,-4.4478,-4.4537,-4.4545,-4.4554,-4.4735,0,0,-4.4579,-4.4583,0,0,0,0,0,0,0,0,-4.4419,-4.4432,-4.452,-4.4516,-4.4511,-4.4548,-4.457,-4.4666,-4.4499,-4.4501,-4.4482,-4.4475,-4.4549,-4.4556,-4.4581,-4.4738,-4.4741,-4.458,-4.4585,-4.4589,-4.4591,0,0,0,0,0,0,0,-4.4413,-4.4429,-4.4594,-4.4521,-4.4516,-4.4482,-4.4486,-4.4588,-4.456,-4.45,-4.449,-4.4499,-4.4545,-4.4573,-4.4581,-4.4742,-4.458,-4.4587,-4.4593,-4.4596,-4.5048,-4.5055,0,0,0,0,0,0,-4.4415,-4.4425,-4.4592,-4.4596,-4.4448,-4.4491,-4.4496,-4.4543,-4.4559,-4.4555,-4.4505,-4.4493,-4.4562,-4.4572,-4.4583,-4.4795,-4.4589,-4.4597,-4.4601,-4.5041,-4.505,-4.5057,0,0,0,0,0,0,-4.4411,-4.4431,-4.459,-4.4508,-4.4525,-4.4502,-4.4555,-4.4547,-4.4575,-4.4562,-4.4557,-4.4539,-4.4557,-4.4571,-4.4698,-4.4795,-4.46,-4.4608,-4.5033,-4.5044,-4.5053,-4.5223,0,0,0,0,0,0,-4.4405,-4.4431,-4.45,-4.451,-4.453,-4.4705,-4.4561,-4.4553,-4.459,-4.4575,-4.4593,-4.4589,-4.4553,-4.4686,-4.4706,-4.4803,-4.4615,-4.5024,-4.5038,-4.505,-4.5208,-4.5237,-4.5263,0,0,0,0,0,-4.4397,-4.4546,-4.4504,-4.4525,-4.4617,-4.4711,-4.4722,-4.4678,-4.4599,-4.4668,-4.4659,-4.4589,-4.4782,-4.47,-4.4722,-4.4823,-4.5018,-4.5034,-4.5049,-4.5196,-4.5232,-4.5262,0,0,0,0,0,0,-4.4548,-4.4546,-4.45,-4.4657,-4.4685,-4.4688,-4.4774,-4.4718,-4.4769,-4.4753,-4.4695,-4.47,-4.4838,-4.4843,-4.4752,-4.4998,-4.4886,-4.4907,-4.499,-4.5024,-4.5051,-4.5047,-4.4622,0,0,0,0,0,-4.4599,-4.4677,-4.4671,-4.4809,-4.4826,-4.4798,-4.4838,-4.4801,-4.4828,-4.4839,-4.4839,-4.4868,-4.4934,-4.4979,-4.504,-4.5208,-4.5209,-4.5288,-4.5315,-4.5338,-4.5356,-4.5443,-4.5478,-4.5109,-4.5109,-4.5108,0,0,-4.4707,-4.4715,-4.4768,-4.484,-4.4858,-4.4938,-4.4809,-4.49,-4.4959,-4.4852,-4.4972,-4.4974,-4.5001,-4.5149,-4.5214,-4.5158,-4.5458,-4.5358,-4.5376,-4.5382,-4.5463,-4.5498,-4.5529,-4.5119,-4.5117,-4.5116,0,0,-4.4943,-4.4958,-4.5074,-4.5094,-4.5122,-4.5102,-4.5131,-4.5142,-4.5139,-4.5258,-4.5179,-4.5248,-4.5364,-4.5387,-4.5413,-4.5657,-4.5593,-4.5678,-4.582,-4.5906,-4.5935,-4.596,-4.6046,-4.6077,-4.5696,-4.5697,-4.5697,0,-4.5072,-4.5191,-4.5141,-4.5237,-4.5271,-4.5178,-4.5295,-4.5316,-4.5363,-4.5388,-4.5324,-4.5467,-4.5479,-4.563,-4.5689,-4.5714,-4.5743,-4.5676,-4.5935,-4.596,-4.5983,-4.6064,-4.6096,-4.5707,-4.5706,-4.5705,-4.5704,0,-4.5348,-4.5432,-4.5522,-4.557,-4.5613,-4.572,-4.5684,-4.5734,-4.5694,-4.568,-4.5802,-4.5813,-4.5873,-4.5907,-4.5868,-4.6052,-4.6016,-4.5945,-4.583,-4.6029,-4.6104,-4.6135,-4.5721,-4.5718,-4.5715,-4.5712,0,0,-4.5682,-4.5699,-4.5733,-4.5753,-4.5776,-4.584,-4.5941,-4.6,-4.6043,-4.6078,-4.6161,-4.6261,-4.6194,-4.6225,-4.6188,-4.6263,-4.6453,-4.6182,-4.6182,-4.6231,-4.6655,-4.6708,-4.6744,-4.6411,-4.6417,-4.6422,-4.6652,0,-4.5915,-4.6089,-4.6046,-4.6219,-4.6294,-4.6206,-4.6294,-4.6318,-4.6308,-4.6369,-4.6357,-4.6429,-4.6337,-4.6354,-4.6425,-4.6415,-4.6537,-4.6398,-4.6486,-4.649,-4.6482,-4.6784,-4.684,-4.7057,-4.6681,-4.6686,-4.669,0,-4.621,-4.6256,-4.6436,-4.6445,-4.6475,-4.6556,-4.6605,-4.6666,-4.669,-4.6677,-4.6711,-4.6658,-4.6756,-4.6642,-4.6776,-4.6682,-4.6715,-4.6716,-4.6723,-4.6729,-4.6602,-4.6797,-4.7125,-4.7158,-4.6735,-4.6732,-4.6728,0,-4.6434,-4.6541,-4.6661,-4.6681,-4.6696,-4.6754,-4.6762,-4.678,-4.6818,-4.6861,-4.6885,-4.6939,-4.6969,-4.7012,-4.6975,-4.6895,-4.7114,-4.6997,-4.7105,-4.7106,-4.7155,-4.7152,-4.7493,-4.7179,-4.7178,-4.7178,-4.7177,0,-4.6697,-4.6811,-4.6762,-4.6837,-4.696,-4.6909,-4.7033,-4.7031,-4.7048,-4.7119,-4.7047,-4.7115,-4.7062,-4.7126,-4.7098,-4.7212,-4.7226,-4.7218,-4.7208,-4.7224,-4.7225,-4.7244,-4.7228,-4.7186,-4.7184,-4.7183,-4.7181,0,-4.6968,-4.6941,-4.7066,-4.707,-4.7073,-4.7164,-4.7166,-4.7234,-4.7218,-4.731,-4.7328,-4.7303,-4.7374,-4.7342,-4.7416,-4.7397,-4.7544,-4.7515,-4.7536,-4.7528,-4.7638,-4.7628,-4.8002,-4.8048,-4.7706,-4.7709,-4.7712,0,-4.7138,-4.7223,-4.7235,-4.7278,-4.7292,-4.7362,-4.74,-4.7353,-4.7395,-4.7428,-4.7492,-4.7557,-4.7606,-4.7723,-4.7711,-4.7767,-4.7739,-4.7866,-4.7747,-4.7759,-4.7739,-4.7734,-4.7741,-4.789,-4.7894,-4.7897,-4.79,0,-4.7442,-4.7424,-4.7481,-4.7535,-4.7582,-4.7621,-4.7654,-4.7693,-4.7647,-4.7698,-4.777,-4.7808,-4.7884,-4.7948,-4.7997,-4.8004,-4.7945,-4.7937,-4.7965,-4.7981,-4.7989,-4.7985,-4.76,-4.7929,-4.7926,-4.7924,-4.7922,-4.7921,-4.7666,-4.7737,-4.7756,-4.7823,-4.7842,-4.7875,-4.7939,-4.7931,-4.799,-4.8048,-4.8016,-4.8099,-4.8119,-4.8179,-4.8194,-4.8258,-4.8207,-4.8248,-4.8258,-4.8269,-4.8282,-4.798,-4.8267,-4.8266,-4.8265,-4.8264,-4.8264,0,-4.7965,-4.7973,-4.8034,-4.8083,-4.8135,-4.8074,-4.8107,-4.8154,-4.8229,-4.8253,-4.8302,-4.8384,-4.8446,-4.8439,-4.8495,-4.8547,-4.8521,-4.8563,-4.8558,-4.8561,-4.8325,-4.8295,-4.8584,-4.8584,-4.8584,-4.8583,-4.8583,-4.8583,-4.8126,-4.8242,-4.8226,-4.8351,-4.8357,-4.8439,-4.8463,-4.8491,-4.851,-4.8605,-4.8656,-4.8651,-4.8661,-4.8718,-4.8771,-4.8767,-4.8791,-4.8844,-4.883,-4.8609,-4.8578,-4.8547,-4.8519,-4.8849,-4.885,-4.9059,-4.9061,-4.9063]},{"header":{"parameterUnit":"m.s-1","parameterCategory":1,"la1":30.2991,"la2":30.254,"lo1":-89.0895,"lo2":-89.0444,"dy":0.0017,"dx":0.0017,"nx":28,"ny":28,"refTime":"2024-04-05T03:00:00:Z","depth":0,"parameterNumber":3,"parameterNumberName":"V-component_of_WINDS"},"data":[0,0,0,0,0,0,0,0,0,0,0,0,0,0,0,0,0,0,0,0,0,0,0,0,0,0,0,0,0,0,0,0,0,0,0,0,0,0,0,0,0,0,0,0,0,0,0,0,0,0,0,0,0,0,0,0,0,0,-2.6404,-2.6405,0,-2.6446,-2.6446,-2.6447,-2.6418,-2.6417,-2.6416,-2.6414,-2.6456,-2.6458,-2.6461,0,0,0,0,0,0,0,0,0,0,0,0,0,-2.6297,-2.6299,-2.6404,-2.6405,-2.6405,-2.6446,-2.6446,-2.6447,-2.6418,-2.6417,-2.6415,-2.6414,-2.6455,-2.6458,-2.6461,0,0,0,0,0,0,0,0,0,0,0,0,0,-2.6342,-2.63,-2.6404,-2.6396,-2.6396,-2.6446,-2.6446,-2.6447,-2.6419,-2.6417,-2.6415,-2.6413,-2.6455,-2.6458,-2.6461,-2.6522,0,0,-2.6472,-2.6473,0,0,0,0,0,0,0,0,-2.6339,-2.6346,-2.6397,-2.6397,-2.6396,-2.6425,-2.6424,-2.6472,-2.6419,-2.641,-2.6414,-2.6412,-2.6447,-2.6451,-2.6463,-2.6524,-2.6525,-2.6472,-2.6474,-2.6476,-2.6477,0,0,0,0,0,0,0,-2.6336,-2.6344,-2.6421,-2.6397,-2.6397,-2.6389,-2.6393,-2.6433,-2.6439,-2.6411,-2.6409,-2.6414,-2.6447,-2.646,-2.6464,-2.6526,-2.6472,-2.6475,-2.6477,-2.6479,-2.6635,-2.6637,0,0,0,0,0,0,-2.6334,-2.6341,-2.6419,-2.6422,-2.6362,-2.6393,-2.6397,-2.6418,-2.6438,-2.644,-2.6416,-2.6412,-2.6455,-2.646,-2.6465,-2.6536,-2.6476,-2.6479,-2.6481,-2.6633,-2.6635,-2.6638,0,0,0,0,0,0,-2.6332,-2.6341,-2.6418,-2.6381,-2.639,-2.6397,-2.642,-2.6419,-2.6433,-2.6442,-2.6443,-2.6428,-2.6454,-2.6461,-2.6507,-2.6537,-2.6481,-2.6484,-2.6631,-2.6634,-2.6637,-2.6678,0,0,0,0,0,0,-2.6329,-2.6341,-2.6365,-2.6382,-2.6392,-2.646,-2.6421,-2.6422,-2.6439,-2.6435,-2.6454,-2.6455,-2.6453,-2.6502,-2.6511,-2.6541,-2.6487,-2.6628,-2.6632,-2.6636,-2.6674,-2.6682,-2.6689,0,0,0,0,0,-2.6325,-2.6375,-2.6366,-2.6375,-2.6422,-2.6462,-2.6467,-2.6463,-2.6441,-2.6465,-2.647,-2.6455,-2.6532,-2.6507,-2.6517,-2.6548,-2.6626,-2.6631,-2.6635,-2.667,-2.668,-2.6689,0,0,0,0,0,0,-2.6361,-2.6377,-2.6367,-2.6424,-2.6442,-2.6457,-2.6486,-2.6474,-2.6499,-2.6494,-2.6488,-2.6492,-2.6541,-2.6549,-2.6521,-2.6606,-2.6575,-2.6582,-2.6599,-2.6608,-2.6616,-2.6613,-2.6489,0,0,0,0,0,-2.6375,-2.6407,-2.6419,-2.6467,-2.6477,-2.648,-2.6497,-2.6492,-2.651,-2.6517,-2.6527,-2.6544,-2.6572,-2.6591,-2.6617,-2.6675,-2.6678,-2.6701,-2.6708,-2.6714,-2.672,-2.6749,-2.6759,-2.6653,-2.6653,-2.6653,0,0,-2.6406,-2.6418,-2.6438,-2.6475,-2.6488,-2.6519,-2.6486,-2.6522,-2.6544,-2.6523,-2.6567,-2.6574,-2.6593,-2.6645,-2.6668,-2.6653,-2.675,-2.672,-2.6725,-2.6727,-2.6755,-2.6765,-2.6774,-2.6656,-2.6656,-2.6655,0,0,-2.6477,-2.649,-2.6531,-2.6544,-2.6564,-2.6566,-2.6576,-2.6592,-2.6596,-2.664,-2.6624,-2.6651,-2.67,-2.6713,-2.6727,-2.68,-2.6786,-2.6809,-2.6848,-2.6876,-2.6885,-2.6892,-2.6917,-2.6926,-2.6815,-2.6815,-2.6815,0,-2.6512,-2.6559,-2.6554,-2.659,-2.6605,-2.6586,-2.6627,-2.664,-2.6668,-2.6679,-2.6661,-2.6721,-2.6733,-2.6786,-2.6804,-2.6816,-2.6826,-2.6807,-2.6884,-2.6891,-2.6898,-2.6922,-2.6931,-2.6817,-2.6817,-2.6817,-2.6817,0,-2.66,-2.6633,-2.6664,-2.669,-2.6709,-2.6748,-2.6747,-2.6767,-2.676,-2.6763,-2.6807,-2.682,-2.6848,-2.686,-2.6854,-2.6913,-2.6903,-2.6885,-2.6854,-2.6911,-2.6933,-2.6942,-2.6821,-2.682,-2.6819,-2.6819,0,0,-2.6696,-2.6718,-2.6729,-2.674,-2.6759,-2.6784,-2.6821,-2.6848,-2.6864,-2.6883,-2.6913,-2.6953,-2.6937,-2.6952,-2.6947,-2.6972,-2.7027,-2.6951,-2.6951,-2.6963,-2.7091,-2.7103,-2.7114,-2.7018,-2.702,-2.7021,-2.7088,0,-2.6767,-2.6831,-2.6826,-2.6886,-2.6915,-2.6896,-2.6928,-2.6943,-2.6946,-2.697,-2.6974,-2.7002,-2.6978,-2.6987,-2.7011,-2.7015,-2.7052,-2.7011,-2.7044,-2.7046,-2.704,-2.7126,-2.7139,-2.7203,-2.7097,-2.7099,-2.71,0,-2.6859,-2.688,-2.6943,-2.6956,-2.6968,-2.6997,-2.702,-2.7044,-2.706,-2.706,-2.7076,-2.7066,-2.7101,-2.707,-2.7117,-2.7089,-2.7102,-2.7106,-2.7109,-2.7111,-2.7076,-2.7129,-2.7223,-2.7232,-2.7114,-2.7112,-2.7111,0,-2.6921,-2.6965,-2.7008,-2.7018,-2.7035,-2.7055,-2.7063,-2.7077,-2.7092,-2.7113,-2.7122,-2.7147,-2.716,-2.7178,-2.7174,-2.7152,-2.7222,-2.7191,-2.7223,-2.7223,-2.7238,-2.7237,-2.7334,-2.7248,-2.7248,-2.7248,-2.7248,0,-2.7,-2.7039,-2.7036,-2.7062,-2.7104,-2.7098,-2.7139,-2.7145,-2.7157,-2.7183,-2.7168,-2.7193,-2.7187,-2.7211,-2.7208,-2.7247,-2.7254,-2.7254,-2.7253,-2.7255,-2.7255,-2.7263,-2.7259,-2.7251,-2.725,-2.7249,-2.7249,0,-2.7077,-2.7076,-2.7121,-2.7133,-2.7137,-2.7167,-2.7177,-2.7201,-2.7202,-2.7235,-2.7242,-2.7244,-2.7272,-2.727,-2.7301,-2.7299,-2.7347,-2.7341,-2.7342,-2.734,-2.7371,-2.7368,-2.7476,-2.749,-2.7396,-2.7397,-2.7398,0,-2.7127,-2.7156,-2.717,-2.7187,-2.7196,-2.7222,-2.7238,-2.7232,-2.7249,-2.7268,-2.7289,-2.7315,-2.7336,-2.738,-2.7384,-2.7407,-2.7401,-2.7437,-2.7404,-2.7405,-2.74,-2.7398,-2.74,-2.7444,-2.7445,-2.7446,-2.7446,0,-2.7216,-2.7214,-2.7237,-2.726,-2.7279,-2.7297,-2.7313,-2.7327,-2.7322,-2.7342,-2.7369,-2.7385,-2.7416,-2.7441,-2.7463,-2.747,-2.7457,-2.7456,-2.7465,-2.7467,-2.7466,-2.7466,-2.7358,-2.7454,-2.7453,-2.7453,-2.7452,-2.7452,-2.728,-2.7304,-2.7318,-2.7344,-2.7355,-2.737,-2.7392,-2.7396,-2.7419,-2.7443,-2.7438,-2.7469,-2.7482,-2.7509,-2.7519,-2.7542,-2.7529,-2.7541,-2.7544,-2.7547,-2.755,-2.7462,-2.7546,-2.7546,-2.7545,-2.7545,-2.7545,0,-2.7367,-2.7375,-2.7398,-2.7421,-2.7441,-2.7426,-2.7443,-2.746,-2.7487,-2.75,-2.752,-2.7551,-2.7575,-2.758,-2.7603,-2.762,-2.7615,-2.7627,-2.7625,-2.7626,-2.7561,-2.7551,-2.7631,-2.7631,-2.7631,-2.7631,-2.7631,-2.7631,-2.7415,-2.7455,-2.7454,-2.7498,-2.7505,-2.7535,-2.7545,-2.7558,-2.7568,-2.7603,-2.7623,-2.7626,-2.7635,-2.7658,-2.7679,-2.768,-2.7689,-2.7702,-2.7701,-2.764,-2.7631,-2.7623,-2.7613,-2.7705,-2.7705,-2.7764,-2.7764,-2.7765]}]]